Regional Weather Roundup
Issued by NWS

Home | Current Version | Previous Version | Graphics & Text | Print | Product List | Glossary On
Versions: 1 2 3 4 5 6 7 8 9 10 11 12 13 14 15 16 17 18 19 20 21 22 23 24 25 26 27 28 29 30 31 32 33 34 35 36 37 38 39 40 41 42 43 44 45 46 47 48 49 50
000
ASUS43 KMKX 031621
RWRWI

WISCONSIN REGIONAL WEATHER ROUNDUP
NATIONAL WEATHER SERVICE MILWAUKEE/SULLIVAN WI
1100 AM CDT MON AUG 03 2015

NOTE: "FAIR" INDICATES FEW OR NO CLOUDS BELOW 12,000 FEET WITH NO
SIGNIFICANT WEATHER AND/OR OBSTRUCTIONS TO VISIBILITY.

WIZ001-002-006>008-014>016-023>028-031700-
NORTHWEST WISCONSIN

CITY           SKY/WX    TMP DP  RH WIND       PRES   REMARKS
SUPERIOR ARPT  PTSUNNY   68  53  59 NW10G21   29.84R
ASHLAND        PTSUNNY   70  53  54 NW10G22   29.82R
HAYWARD        MOSUNNY   68  50  52 VRB5      29.85R
SIREN          SUNNY     69  51  52 NW14G21   29.88S
CUMBERLAND     SUNNY     66  50  55 NW14G20   29.88R
RICE LAKE      SUNNY     69  51  53 W9        29.89R
CHETEK         SUNNY     71  53  54 W8G18     29.87R
LADYSMITH      SUNNY     69  50  51 NW13G24   29.87R
EAU CLAIRE     SUNNY     74  48  39 W13       29.86S
MENOMONIE      SUNNY     74  46  36 W18G25    29.88S
NEW RICHMOND   SUNNY     71  50  47 NW13G21   29.90R
OSCEOLA        SUNNY     71  50  48 NW10G18   29.92R
$$

WIZ003>005-009-010-017-018-031700-
NORTH CENTRAL WISCONSIN

CITY           SKY/WX    TMP DP  RH WIND       PRES   REMARKS
MANITOWISH WTR PTSUNNY   65  52  62 NW14G22   29.81R
ARBOR VITAE    CLOUDY    64  52  64 NW12G18   29.82R
WOODRUFF       CLOUDY    64  52  64 NW12G18   29.82R
RHINELANDER    CLOUDY    67  49  52 W16       29.82R
EAGLE RIVER    MOSUNNY   66  48  51 W13G22    29.79S
LAND O LAKES   CLOUDY    65  49  55 W14G22    29.80R
PHILLIPS       MOSUNNY   67  52  59 NW10G18   29.83R
TOMAHAWK       SUNNY     67  50  54 W12G17    29.83R
MEDFORD        SUNNY     67  51  56 NW10G18   29.84S
MERRILL        NOT AVBL
$$

WIZ029-030-035-036-043>047-031700-
CENTRAL WISCONSIN

CITY           SKY/WX    TMP DP  RH WIND       PRES   REMARKS
WAUSAU         MOSUNNY   72  44  36 NW10G24   29.81F
MOSINEE        MOSUNNY   70  45  40 NW17      29.84S
MARSHFIELD     SUNNY     72  47  40 W20G26    29.85S
STEVENS POINT  MOSUNNY   69  47  45 W10G18    29.84S
WAUPACA        SUNNY     75  43  31 W12G22    29.83S
WAUTOMA        SUNNY     76  43  30 NW15G23   29.85S
WISC RAPIDS    SUNNY     74  45  35 W15G23    29.87R
CAMP DOUGLAS   MOSUNNY   75  50  41 W18G24    29.86S
$$

WIZ011>013-019>022-031-037>040-048>050-031700-
NORTHEAST WISCONSIN

CITY           SKY/WX    TMP DP  RH WIND       PRES   REMARKS
ANTIGO         MOSUNNY   68  49  51 W8        29.82S
SHAWANO        SUNNY     73  52  48 NW12      29.80S
OCONTO         SUNNY     73  52  47 NW8       29.78S
STURGEON BAY   CLOUDY    70  52  52 W7        29.81R
GREEN BAY      SUNNY     72  57  59 W12G17    29.80S
MANITOWOC      MOSUNNY   72  52  49 MISG      29.81R
APPLETON       MOSUNNY   72  48  43 NW14      29.82S
CLINTONVILLE   SUNNY     72  45  37 NW9       29.81S
OSHKOSH        SUNNY     72  48  42 W14       29.83R
$$

WIZ032>034-041-042-053>061-031700-
SOUTHWEST WISCONSIN

CITY           SKY/WX    TMP DP  RH WIND       PRES   REMARKS
LA CROSSE      SUNNY     77  52  41 NW10G20   29.88S
SPARTA         SUNNY     76  46  35 W10G18    29.89R
VIROQUA        SUNNY     72  53  50 NW9       29.92R
BOSCOBEL       SUNNY     78  49  35 NW9       29.91R
PRAIRIE DU CHI SUNNY     77  43  29 W13       29.91R
PLATTEVILLE    SUNNY     74  51  42 NW6       29.93R
$$

WIZ056-057-062-063-064-067-068-031700-
SOUTH CENTRAL WISCONSIN

CITY           SKY/WX    TMP DP  RH WIND       PRES   REMARKS
REEDSBURG      SUNNY     75  47  37 NW12G18   29.88R
BARABOO/DELLS  SUNNY     75  42  30 W13G20    29.87S
LONE ROCK      SUNNY     77  48  35 NW9       29.89S
MINERAL POINT  SUNNY     75  46  35 W9        29.92R
MADISON        MOSUNNY   75  47  36 NW13G22   29.87S
MIDDLETON      SUNNY     76  41  28 NW14      29.89R
WATERTOWN      SUNNY     73  49  42 W14G21    29.86R
MONROE         SUNNY     73  45  35 NW13      29.90S
JANESVILLE     SUNNY     79  43  27 NW14G20   29.88R
$$

WIZ051-052-058>065-066-070>072-031700-
SOUTHEAST WISCONSIN

CITY           SKY/WX    TMP DP  RH WIND       PRES   REMARKS
MILWAUKEE      MOSUNNY   76  45  33 NW16      29.84R
WAUKESHA       SUNNY     73  43  33 NW14G23   29.86S
MILWAUKEE/TIMM SUNNY     73  43  33 W14G22    29.85R
RACINE         SUNNY     76  49  38 W15G21    29.86R
BURLINGTON     SUNNY     75  44  32 W14G21    29.87R
KENOSHA        SUNNY     75  54  47 W14G20    29.86R
FOND DU LAC    SUNNY     73  50  44 NW16      29.84R
SHEBOYGAN      SUNNY     72  55  55 W12G21    29.82R
WEST BEND      SUNNY     72  48  43 W12G18    29.85R
JUNEAU         SUNNY     71  49  45 W8G17     29.87R
$$

LSZ147-162-031700-
LAKE SUPERIOR

STATION/POSITION TIME  TEMP    WIND        PRES    WAVE
                       AIR SEA DIR/SP/G            HT/PER
                 (UTC) (F)     (DEG/KT/KT) (MB)    (FT/S)
W MID LAKE BUOY  1550   57 55  260/ 16/ 17 1007.3R   2/ 4
DEVILS ISLAND    1600   60     270/ 11/ 13 1009.0R
PORT WING        1500   62     270/ 12/ 15 1009.8R
SAXON HARBOR     1540   65                 1009.1R
$$

LMZ867-665-643>646-031700-
LAKE MICHIGAN

STATION/POSITION TIME  TEMP    WIND        PRES    WAVE
                       AIR SEA DIR/SP/G            HT/PER
                 (UTC) (F)     (DEG/KT/KT) (MB)    (FT/S)
CHAMBERS ISLAND  1500   69     250/  3/  7 1008.1S
S GREEN BAY BUOY 1600   67 71  220/ 12/ 14 1010.1S
N MID LAKE BUOY  1550   64 67  280/  6/  8 1007.4R   2/ 6
NORTHPORT PIER   1500   67     310/  6/  9 1007.8S
SISTER BAY       1503   69     320/  9/ 11   N/A
ALGOMA LAKESHORE 1542          260/  4/  7   N/A
KEWAUNEE LAKESHO 1500   69     300/  6/  9 1008.2S
SHEBOYGAN LAKESH 1600   70     270/ 10/ 13 1009.7R
PORT WASHINGTON  1540   74     280/  6/ 16 1010.5S
ATWATER BUOY     1600   70 59  260/ 16/ 19 1011.6R
MILWAUKEE LAKESH 1600   73     290/ 13/ 18   N/A
KENOSHA   LAKESH 1600   74     270/ 16/ 19 1010.5R
$$

TC  - TEMPERATURE IN CELSIUS
VSB - VISIBILITY IN STATUTE MILES
WCI - WIND CHILL INDEX
HX  - HEAT INDEX



USA.gov is the U.S. government's official web portal to all federal, state and local government web resources and services.